Regional Weather Roundup
Issued by NWS

Home | Current Version | Previous Version | Text Only | Print | Product List | Glossary On
Versions: 1 2 3 4 5 6 7 8 9 10 11 12 13 14 15 16 17 18 19 20 21 22 23 24 25 26 27 28 29 30 31 32 33 34 35 36 37 38 39 40 41 42 43 44 45 46 47 48 49 50
000
ASUS44 KOUN 292310
RWROK

WEATHER ROUNDUP FOR OKLAHOMA
NATIONAL WEATHER SERVICE NORMAN OK
600 PM CDT WED JUL 29 2015

NOTE: "FAIR" INDICATES FEW OR NO CLOUDS BELOW 12,000 FEET WITH NO
      SIGNIFICANT WEATHER AND/OR OBSTRUCTIONS TO VISIBILITY.

OKZ001>007-009>012-014-015-017-300000-
NORTHWEST OKLAHOMA AND THE PANHANDLE

CITY           SKY/WX    TMP DP  RH WIND       PRES   REMARKS
GAGE           PTSUNNY   84  70  62 NE22      30.09F THUNDER
GUYMON         PTSUNNY   85  66  53 NE12      30.16F
ENID/WOODRING  MOSUNNY   97  64  34 E8G17     30.02S HX  99
$$

OKZ016-021>023-033>039-044-045-300000-
SOUTHWEST OKLAHOMA

CITY           SKY/WX    TMP DP  RH WIND       PRES   REMARKS
LAWTON/REGL    SUNNY     99  67  35 SE14      29.98F HX 103
LAWTON/FT SILL MOSUNNY   97  71  41 SE13      29.97F HX 104
FREDERICK      SUNNY    100  65  31 SE8       29.95F HX 103
CLINTON        RAIN      87  73  62 S6        30.04F HX  94
HOBART         MOSUNNY   99  65  32 SE8       30.00F HX 102
ALTUS AFB      MOSUNNY  100  64  29 S10       29.98F HX 103
$$

OKZ018>020-024>031-300000-
CENTRAL OKLAHOMA

CITY           SKY/WX    TMP DP  RH WIND       PRES   REMARKS
OKLAHOMA CITY  MOSUNNY   94  70  45 S10G18    30.02F HX 100
OKC/WILEY POST MOSUNNY   96  69  41 SE12G20   30.02F HX 102
OKC/TINKER AFB SUNNY     93  72  49 SE8       30.02F HX 101
STILLWATER     MOSUNNY   96  70  42 SE10      30.02S HX 102
GUTHRIE        SUNNY     95  70  44 SE8       30.02F HX 101
$$

OKZ008-013-054>072-300000-
NORTHEAST OKLAHOMA

CITY           SKY/WX    TMP DP  RH WIND       PRES   REMARKS
TULSA          MOSUNNY   95  72  47 E5        30.00F HX 103
TULSA/JONES    SUNNY     94  72  48 SW6       30.00F HX 102
PONCA CITY     MOSUNNY   95  70  44 E7        30.05R HX 101
BARTLESVILLE   MOSUNNY   95  71  45 SW3       30.03F HX 102
MUSKOGEE       SUNNY     96  71  44 E5        30.01F HX 103
$$

OKZ032-040>043-046>053-073>077-300000-
SOUTH CENTRAL/SOUTHEAST OKLAHOMA

CITY           SKY/WX    TMP DP  RH WIND       PRES   REMARKS
ARDMORE/DWNTWN SUNNY     95  63  34 SE6       29.99F HX  96
MCALESTER      MOSUNNY   98  66  34 VRB3      30.00F HX 101
$$



USA.gov is the U.S. government's official web portal to all federal, state and local government web resources and services.